Time,TemperatureF,DewpointF,PressureIn,WindDirection,WindDirectionDegrees,WindSpeedMPH,WindSpeedGustMPH,Humidity,HourlyPrecipIn,Conditions,Clouds,dailyrainin,SoftwareType,DateUTC
2013-07-07 00:03:00,72.8,62.8,29.76,West,264,0.0,0.0,71,0.00,RA,SCT,0.00,WeatherDisplay:10.37,2013-07-07 07:03:00,
2013-07-07 00:08:00,72.9,61.3,29.76,West,264,0.0,0.0,67,0.00,RA,SCT,0.00,WeatherDisplay:10.37,2013-07-07 07:08:00,
2013-07-07 00:13:00,73.5,61.0,29.76,West,264,0.1,1.2,65,0.00,CLR,SCT,0.00,WeatherDisplay:10.37,2013-07-07 07:13:00,
2013-07-07 00:18:00,73.9,61.0,29.76,West,264,0.6,3.5,64,0.00,CLR,SCT,0.00,WeatherDisplay:10.37,2013-07-07 07:18:00,
2013-07-07 00:23:00,74.5,60.6,29.76,West,267,0.6,2.3,62,0.00,CLR,SCT,0.00,WeatherDisplay:10.37,2013-07-07 07:23:00,
2013-07-07 00:28:00,75.1,60.3,29.75,West,267,0.0,1.2,60,0.00,CLR,SCT,0.00,WeatherDisplay:10.37,2013-07-07 07:28:00,
2013-07-07 00:33:00,75.8,60.0,29.75,West,267,0.0,0.0,58,0.00,CLR,SCT,0.00,WeatherDisplay:10.37,2013-07-07 07:33:00,
2013-07-07 00:38:00,76.2,59.9,29.75,West,267,0.6,3.5,57,0.00,CLR,SCT,0.00,WeatherDisplay:10.37,2013-07-07 07:38:00,
2013-07-07 00:43:00,76.3,59.9,29.75,West,267,0.0,1.2,57,0.00,CLR,SCT,0.00,WeatherDisplay:10.37,2013-07-07 07:43:00,
2013-07-07 00:48:00,76.4,60.0,29.75,West,267,0.1,1.2,57,0.00,CLR,SCT,0.00,WeatherDisplay:10.37,2013-07-07 07:48:00,
2013-07-07 00:53:00,76.4,59.5,29.75,West,267,0.0,0.0,56,0.00,CLR,SCT,0.00,WeatherDisplay:10.37,2013-07-07 07:53:00,
2013-07-07 00:58:00,76.3,60.4,29.75,West,267,0.0,0.0,58,0.00,CLR,SCT,0.00,WeatherDisplay:10.37,2013-07-07 07:58:00,
2013-07-07 01:03:00,76.1,59.8,29.75,West,267,0.0,0.0,57,0.00,CLR,SCT,0.00,WeatherDisplay:10.37,2013-07-07 08:03:00,
2013-07-07 01:08:00,75.8,60.0,29.75,West,267,0.0,0.0,58,0.00,CLR,SCT,0.00,WeatherDisplay:10.37,2013-07-07 08:08:00,
2013-07-07 01:13:00,75.6,59.8,29.74,West,267,0.0,0.0,58,0.00,CLR,SCT,0.00,WeatherDisplay:10.37,2013-07-07 08:13:00,
2013-07-07 01:18:00,75.4,60.1,29.74,West,267,0.0,0.0,59,0.00,CLR,SCT,0.00,WeatherDisplay:10.37,2013-07-07 08:18:00,
2013-07-07 01:23:00,75.4,60.1,29.74,West,267,0.0,0.0,59,0.00,CLR,SCT,0.00,WeatherDisplay:10.37,2013-07-07 08:23:00,
2013-07-07 01:28:00,75.2,60.4,29.74,West,267,0.0,0.0,60,0.00,CLR,SCT,0.00,WeatherDisplay:10.37,2013-07-07 08:28:00,
2013-07-07 01:33:00,74.8,60.4,29.74,West,267,0.0,0.0,61,0.00,CLR,SCT,0.00,WeatherDisplay:10.37,2013-07-07 08:33:00,
2013-07-07 01:38:00,74.4,61.0,29.74,West,267,0.0,0.0,63,0.00,CLR,SCT,0.00,WeatherDisplay:10.37,2013-07-07 08:38:00,
2013-07-07 01:43:00,73.9,60.5,29.74,West,267,0.0,0.0,63,0.00,CLR,SCT,0.00,WeatherDisplay:10.37,2013-07-07 08:43:00,
2013-07-07 01:48:00,73.7,60.8,29.74,West,267,0.0,0.0,64,0.00,CLR,SCT,0.00,WeatherDisplay:10.37,2013-07-07 08:48:00,
2013-07-07 01:53:00,73.5,61.4,29.74,West,267,0.0,0.0,66,0.00,CLR,SCT,0.00,WeatherDisplay:10.37,2013-07-07 08:53:00,
2013-07-07 01:58:00,73.2,61.2,29.74,West,267,0.0,0.0,66,0.00,CLR,SCT,0.00,WeatherDisplay:10.37,2013-07-07 08:58:00,
2013-07-07 02:03:00,72.8,61.6,29.74,West,267,0.0,0.0,68,0.00,CLR,SCT,0.00,WeatherDisplay:10.37,2013-07-07 09:03:00,
2013-07-07 02:08:00,72.3,62.0,29.74,West,267,0.0,0.0,70,0.00,CLR,SCT,0.00,WeatherDisplay:10.37,2013-07-07 09:08:00,
2013-07-07 02:13:00,71.9,61.6,29.74,West,267,0.0,0.0,70,0.00,CLR,SCT,0.00,WeatherDisplay:10.37,2013-07-07 09:13:00,
2013-07-07 02:18:00,71.4,62.3,29.74,West,267,0.0,0.0,73,0.00,CLR,SCT,0.00,WeatherDisplay:10.37,2013-07-07 09:18:00,
2013-07-07 02:23:00,71.0,62.3,29.74,West,267,0.0,0.0,74,0.00,CLR,SCT,0.00,WeatherDisplay:10.37,2013-07-07 09:23:00,
2013-07-07 02:28:00,70.7,62.0,29.74,West,267,0.0,0.0,74,0.00,CLR,SCT,0.00,WeatherDisplay:10.37,2013-07-07 09:28:00,
2013-07-07 02:33:00,70.5,62.2,29.74,West,267,0.0,0.0,75,0.00,CLR,SCT,0.00,WeatherDisplay:10.37,2013-07-07 09:33:00,
2013-07-07 02:38:00,70.3,62.4,29.74,West,267,0.0,0.0,76,0.00,CLR,SCT,0.00,WeatherDisplay:10.37,2013-07-07 09:38:00,
2013-07-07 02:43:00,70.1,61.4,29.74,West,267,0.0,0.0,74,0.00,CLR,SCT,0.00,WeatherDisplay:10.37,2013-07-07 09:43:00,
2013-07-07 02:48:00,70.1,61.4,29.74,West,267,0.0,0.0,74,0.00,CLR,SCT,0.00,WeatherDisplay:10.37,2013-07-07 09:48:00,
2013-07-07 02:53:00,70.1,62.6,29.73,West,267,0.0,0.0,77,0.00,CLR,SCT,0.00,WeatherDisplay:10.37,2013-07-07 09:53:00,
2013-07-07 02:58:00,69.9,62.4,29.74,West,267,0.0,0.0,77,0.00,CLR,SCT,0.00,WeatherDisplay:10.37,2013-07-07 09:58:00,
2013-07-07 03:03:00,69.8,61.1,29.74,West,267,0.0,0.0,74,0.00,CLR,SCT,0.00,WeatherDisplay:10.37,2013-07-07 10:03:00,
2013-07-07 03:08:00,69.9,60.8,29.74,West,267,0.0,0.0,73,0.00,CLR,SCT,0.00,WeatherDisplay:10.37,2013-07-07 10:08:00,
2013-07-07 03:13:00,70.1,61.0,29.74,West,267,0.0,0.0,73,0.00,CLR,SCT,0.00,WeatherDisplay:10.37,2013-07-07 10:13:00,
2013-07-07 03:18:00,70.0,61.3,29.74,West,267,0.0,0.0,74,0.00,CLR,SCT,0.00,WeatherDisplay:10.37,2013-07-07 10:18:00,
2013-07-07 03:23:00,69.9,61.6,29.74,West,267,0.0,0.0,75,0.00,CLR,SCT,0.00,WeatherDisplay:10.37,2013-07-07 10:23:00,
2013-07-07 03:28:00,69.8,61.1,29.74,West,267,0.0,0.0,74,0.00,CLR,SCT,0.00,WeatherDisplay:10.37,2013-07-07 10:28:00,
2013-07-07 03:33:00,69.6,62.1,29.74,West,267,0.0,0.0,77,0.00,CLR,SCT,0.00,WeatherDisplay:10.37,2013-07-07 10:33:00,
2013-07-07 03:38:00,69.4,61.5,29.74,West,267,0.0,0.0,76,0.00,CLR,SCT,0.00,WeatherDisplay:10.37,2013-07-07 10:38:00,
2013-07-07 03:43:00,69.3,62.1,29.74,West,267,0.0,0.0,78,0.00,CLR,SCT,0.00,WeatherDisplay:10.37,2013-07-07 10:43:00,
2013-07-07 03:48:00,69.2,61.7,29.74,West,267,0.0,0.0,77,0.00,CLR,SCT,0.00,WeatherDisplay:10.37,2013-07-07 10:48:00,
2013-07-07 03:53:00,69.1,62.3,29.74,West,267,0.0,0.0,79,0.00,CLR,SCT,0.00,WeatherDisplay:10.37,2013-07-07 10:53:00,
2013-07-07 03:58:00,68.9,62.5,29.73,West,267,0.0,0.0,80,0.00,CLR,SCT,0.00,WeatherDisplay:10.37,2013-07-07 10:58:00,
2013-07-07 04:03:00,68.6,61.5,29.73,West,267,0.0,0.0,78,0.00,CLR,SCT,0.00,WeatherDisplay:10.37,2013-07-07 11:03:00,
2013-07-07 04:08:00,68.6,61.5,29.73,West,267,0.0,0.0,78,0.00,CLR,SCT,0.00,WeatherDisplay:10.37,2013-07-07 11:08:00,
2013-07-07 04:13:00,68.5,61.4,29.73,West,267,0.0,0.0,78,0.00,CLR,SCT,0.00,WeatherDisplay:10.37,2013-07-07 11:13:00,
2013-07-07 04:18:00,68.5,61.7,29.73,West,267,0.0,0.0,79,0.00,CLR,SCT,0.00,WeatherDisplay:10.37,2013-07-07 11:18:00,
2013-07-07 04:23:00,68.6,61.1,29.73,West,267,0.0,0.0,77,0.00,CLR,SCT,0.00,WeatherDisplay:10.37,2013-07-07 11:23:00,
2013-07-07 04:28:00,68.8,60.6,29.73,West,267,0.0,0.0,75,0.00,CLR,SCT,0.00,WeatherDisplay:10.37,2013-07-07 11:28:00,
2013-07-07 04:33:00,69.2,60.2,29.74,West,267,0.0,0.0,73,0.00,CLR,SCT,0.00,WeatherDisplay:10.37,2013-07-07 11:33:00,
2013-07-07 04:38:00,70.7,61.2,29.74,WSW,254,1.3,2.3,72,0.00,CLR,SCT,0.00,WeatherDisplay:10.37,2013-07-07 11:38:00,
2013-07-07 04:43:00,71.0,59.1,29.74,WSW,249,0.8,1.2,66,0.00,CLR,SCT,0.00,WeatherDisplay:10.37,2013-07-07 11:43:00,
2013-07-07 04:48:00,70.9,59.0,29.74,WSW,248,1.1,2.3,66,0.00,CLR,SCT,0.00,WeatherDisplay:10.37,2013-07-07 11:48:00,
2013-07-07 04:53:00,70.8,58.9,29.74,SW,231,2.0,2.3,66,0.00,CLR,SCT,0.00,WeatherDisplay:10.37,2013-07-07 11:53:00,
2013-07-07 04:58:00,70.7,58.8,29.75,WSW,254,1.5,2.3,66,0.00,CLR,SCT,0.00,WeatherDisplay:10.37,2013-07-07 11:58:00,
2013-07-07 05:03:00,70.8,59.3,29.75,WSW,246,1.0,2.3,67,0.00,CLR,SCT,0.00,WeatherDisplay:10.37,2013-07-07 12:03:00,
2013-07-07 05:08:00,70.9,59.0,29.75,WSW,254,1.5,2.3,66,0.00,CLR,SCT,0.00,WeatherDisplay:10.37,2013-07-07 12:08:00,
2013-07-07 05:13:00,71.1,59.2,29.75,WSW,239,2.3,3.5,66,0.00,CLR,SCT,0.00,WeatherDisplay:10.37,2013-07-07 12:13:00,
2013-07-07 05:18:00,71.3,58.9,29.75,WSW,249,2.3,3.5,65,0.00,CLR,SCT,0.00,WeatherDisplay:10.37,2013-07-07 12:18:00,
2013-07-07 05:23:00,71.4,59.4,29.75,West,267,1.8,2.3,66,0.00,CLR,SCT,0.00,WeatherDisplay:10.37,2013-07-07 12:23:00,
2013-07-07 05:28:00,71.4,59.9,29.75,WSW,248,0.3,1.2,67,0.00,CLR,SCT,0.00,WeatherDisplay:10.37,2013-07-07 12:28:00,
2013-07-07 05:33:00,71.2,59.7,29.75,WSW,241,1.2,2.3,67,0.00,CLR,SCT,0.00,WeatherDisplay:10.37,2013-07-07 12:33:00,
2013-07-07 05:38:00,71.3,59.4,29.75,WSW,246,1.4,2.3,66,0.00,CLR,SCT,0.00,WeatherDisplay:10.37,2013-07-07 12:38:00,
2013-07-07 05:43:00,71.6,59.6,29.75,WSW,250,0.9,1.2,66,0.00,CLR,SCT,0.00,WeatherDisplay:10.37,2013-07-07 12:43:00,
2013-07-07 05:48:00,71.8,59.8,29.76,WSW,248,1.6,2.3,66,0.00,CLR,SCT,0.00,WeatherDisplay:10.37,2013-07-07 12:48:00,
2013-07-07 05:53:00,72.0,60.0,29.76,WSW,249,1.4,2.0,66,0.00,CLR,SCT,0.00,WeatherDisplay:10.37,2013-07-07 12:53:00,
2013-07-07 05:58:00,72.4,60.0,29.75,WSW,252,1.2,2.3,65,0.00,CLR,SCT,0.00,WeatherDisplay:10.37,2013-07-07 12:58:00,
2013-07-07 06:03:00,72.7,60.3,29.76,WSW,255,1.3,2.3,65,0.00,CLR,SCT,0.00,WeatherDisplay:10.37,2013-07-07 13:03:00,
2013-07-07 06:08:00,73.0,60.5,29.76,WSW,255,0.0,0.0,65,0.00,CLR,SCT,0.00,WeatherDisplay:10.37,2013-07-07 13:08:00,
2013-07-07 06:13:00,73.2,60.3,29.76,WSW,255,0.0,0.0,64,0.00,CLR,SCT,0.00,WeatherDisplay:10.37,2013-07-07 13:13:00,
2013-07-07 06:18:00,73.3,60.8,29.76,WSW,255,0.0,0.0,65,0.00,CLR,SCT,0.00,WeatherDisplay:10.37,2013-07-07 13:18:00,
2013-07-07 06:23:00,73.5,62.3,29.76,East,81,2.0,3.0,68,0.00,CLR,SCT,0.00,WeatherDisplay:10.37,2013-07-07 13:23:00,
2013-07-07 06:28:00,73.2,62.4,29.76,East,80,1.4,2.3,69,0.00,CLR,SCT,0.00,WeatherDisplay:10.37,2013-07-07 13:28:00,
2013-07-07 06:33:00,72.9,62.1,29.77,East,79,0.8,2.3,69,0.00,CLR,SCT,0.00,WeatherDisplay:10.37,2013-07-07 13:33:00,
2013-07-07 06:38:00,72.9,62.5,29.77,East,80,0.0,0.0,70,0.00,CLR,SCT,0.00,WeatherDisplay:10.37,2013-07-07 13:38:00,
2013-07-07 06:43:00,73.0,62.6,29.77,SW,221,0.4,1.2,70,0.00,CLR,SCT,0.00,WeatherDisplay:10.37,2013-07-07 13:43:00,
2013-07-07 06:48:00,73.1,62.7,29.77,WSW,246,0.1,1.2,70,0.00,CLR,SCT,0.00,WeatherDisplay:10.37,2013-07-07 13:48:00,
2013-07-07 06:53:00,73.3,62.9,29.77,WSW,244,1.0,1.2,70,0.00,CLR,SCT,0.00,WeatherDisplay:10.37,2013-07-07 13:53:00,
2013-07-07 06:58:00,73.5,62.7,29.77,WSW,242,1.0,1.2,69,0.00,CLR,SCT,0.00,WeatherDisplay:10.37,2013-07-07 13:58:00,
2013-07-07 07:03:00,73.7,62.9,29.78,WSW,238,0.4,3.5,69,0.00,CLR,SCT,0.00,WeatherDisplay:10.37,2013-07-07 14:03:00,
2013-07-07 07:08:00,74.0,63.6,29.78,WSW,250,0.0,0.0,70,0.00,CLR,SCT,0.00,WeatherDisplay:10.37,2013-07-07 14:08:00,
2013-07-07 07:13:00,74.3,63.5,29.78,WSW,249,0.0,0.0,69,0.00,CLR,SCT,0.00,WeatherDisplay:10.37,2013-07-07 14:13:00,
2013-07-07 07:18:00,74.7,63.4,29.78,WSW,249,0.0,0.0,68,0.00,CLR,SCT,0.00,WeatherDisplay:10.37,2013-07-07 14:18:00,
2013-07-07 07:23:00,75.2,63.9,29.78,WSW,250,0.0,0.0,68,0.00,CLR,SCT,0.00,WeatherDisplay:10.37,2013-07-07 14:23:00,
2013-07-07 07:28:00,75.4,64.1,29.79,ENE,78,3.1,4.0,68,0.00,CLR,SCT,0.00,WeatherDisplay:10.37,2013-07-07 14:28:00,
2013-07-07 07:33:00,75.5,63.3,29.79,East,80,1.8,3.5,66,0.00,CLR,SCT,0.00,WeatherDisplay:10.37,2013-07-07 14:33:00,
2013-07-07 07:38:00,75.4,64.5,29.79,ESE,120,0.0,0.0,69,0.00,CLR,SCT,0.00,WeatherDisplay:10.37,2013-07-07 14:38:00,
2013-07-07 07:43:00,75.7,64.8,29.79,ESE,120,0.0,1.2,69,0.00,CLR,SCT,0.00,WeatherDisplay:10.37,2013-07-07 14:43:00,
2013-07-07 07:48:00,75.9,65.0,29.80,ESE,120,0.0,0.0,69,0.00,CLR,SCT,0.00,WeatherDisplay:10.37,2013-07-07 14:48:00,
2013-07-07 07:53:00,76.0,63.8,29.80,ESE,120,0.0,1.2,66,0.00,CLR,SCT,0.00,WeatherDisplay:10.37,2013-07-07 14:53:00,
2013-07-07 07:58:00,76.1,63.9,29.80,ESE,120,0.0,0.0,66,0.00,CLR,SCT,0.00,WeatherDisplay:10.37,2013-07-07 14:58:00,
2013-07-07 08:03:00,76.3,64.1,29.80,ESE,120,0.0,0.0,66,0.00,CLR,SCT,0.00,WeatherDisplay:10.37,2013-07-07 15:03:00,
2013-07-07 08:08:00,76.4,63.8,29.80,ESE,121,0.9,3.5,65,0.00,CLR,SCT,0.00,WeatherDisplay:10.37,2013-07-07 15:08:00,
2013-07-07 08:13:00,76.6,64.0,29.80,ESE,121,0.0,1.2,65,0.00,CLR,SCT,0.00,WeatherDisplay:10.37,2013-07-07 15:13:00,
2013-07-07 08:18:00,76.9,64.2,29.80,ESE,121,0.0,3.5,65,0.00,CLR,SCT,0.00,WeatherDisplay:10.37,2013-07-07 15:18:00,
2013-07-07 08:23:00,77.1,64.9,29.80,ESE,123,0.0,1.2,66,0.00,CLR,SCT,0.00,WeatherDisplay:10.37,2013-07-07 15:23:00,
2013-07-07 08:28:00,77.4,63.8,29.80,ESE,123,0.1,1.2,63,0.00,CLR,SCT,0.00,WeatherDisplay:10.37,2013-07-07 15:28:00,
2013-07-07 08:33:00,77.9,63.4,29.79,ESE,123,0.0,3.5,61,0.00,CLR,SCT,0.00,WeatherDisplay:10.37,2013-07-07 15:33:00,
2013-07-07 08:38:00,78.4,61.9,29.79,WSW,244,1.1,3.5,57,0.00,CLR,SCT,0.00,WeatherDisplay:10.37,2013-07-07 15:38:00,
2013-07-07 08:44:00,78.8,61.8,29.79,WSW,244,0.0,0.0,56,0.00,CLR,SCT,0.00,WeatherDisplay:10.37,2013-07-07 15:44:00,
2013-07-07 08:49:00,79.2,60.6,29.79,WSW,244,0.0,0.0,53,0.00,CLR,SCT,0.00,WeatherDisplay:10.37,2013-07-07 15:49:00,
2013-07-07 08:54:00,79.6,61.5,29.79,WSW,244,0.0,0.0,54,0.00,CLR,SCT,0.00,WeatherDisplay:10.37,2013-07-07 15:54:00,
2013-07-07 08:59:00,80.0,61.3,29.79,WSW,244,0.0,0.0,53,0.00,CLR,SCT,0.00,WeatherDisplay:10.37,2013-07-07 15:59:00,
2013-07-07 09:04:00,80.4,61.7,29.79,WSW,244,0.0,0.0,53,0.00,CLR,SCT,0.00,WeatherDisplay:10.37,2013-07-07 16:04:00,
2013-07-07 09:09:00,80.8,61.0,29.79,WSW,244,0.0,0.0,51,0.00,CLR,SCT,0.00,WeatherDisplay:10.37,2013-07-07 16:09:00,
2013-07-07 09:14:00,81.2,60.8,29.79,WSW,244,0.0,0.0,50,0.00,CLR,SCT,0.00,WeatherDisplay:10.37,2013-07-07 16:14:00,
2013-07-07 09:19:00,81.9,60.3,29.79,WSW,244,0.0,0.0,48,0.00,CLR,SCT,0.00,WeatherDisplay:10.37,2013-07-07 16:19:00,
2013-07-07 09:24:00,82.5,60.8,29.79,WSW,244,0.0,0.0,48,0.00,CLR,SCT,0.00,WeatherDisplay:10.37,2013-07-07 16:24:00,
2013-07-07 09:29:00,82.8,60.5,29.79,WSW,244,0.0,0.0,47,0.00,CLR,SCT,0.00,WeatherDisplay:10.37,2013-07-07 16:29:00,
2013-07-07 09:34:00,83.0,60.7,29.79,WSW,244,0.1,0.0,47,0.00,CLR,SCT,0.00,WeatherDisplay:10.37,2013-07-07 16:34:00,
2013-07-07 09:39:00,83.7,58.8,29.79,WSW,244,0.0,0.0,43,0.00,CLR,SCT,0.00,WeatherDisplay:10.37,2013-07-07 16:39:00,
2013-07-07 09:44:00,84.3,60.0,29.80,WSW,244,0.0,0.0,44,0.00,CLR,SCT,0.00,WeatherDisplay:10.37,2013-07-07 16:44:00,
2013-07-07 09:49:00,84.9,59.9,29.79,WSW,244,0.0,0.0,43,0.00,CLR,SCT,0.00,WeatherDisplay:10.37,2013-07-07 16:49:00,
2013-07-07 09:54:00,85.4,59.7,29.79,WSW,244,0.0,0.0,42,0.00,CLR,SCT,0.00,WeatherDisplay:10.37,2013-07-07 16:54:00,
2013-07-07 09:59:00,85.6,59.9,29.79,WSW,244,0.0,1.2,42,0.00,CLR,SCT,0.00,WeatherDisplay:10.37,2013-07-07 16:59:00,
2013-07-07 10:04:00,85.7,61.3,29.79,WSW,244,0.0,1.2,44,0.00,CLR,SCT,0.00,WeatherDisplay:10.37,2013-07-07 17:04:00,
2013-07-07 10:09:00,85.6,59.9,29.79,WSW,244,0.1,0.0,42,0.00,CLR,SCT,0.00,WeatherDisplay:10.37,2013-07-07 17:09:00,
2013-07-07 10:14:00,86.0,59.6,29.79,WSW,244,0.1,1.2,41,0.00,CLR,SCT,0.00,WeatherDisplay:10.37,2013-07-07 17:14:00,
2013-07-07 10:19:00,86.3,59.8,29.79,WSW,244,0.0,1.2,41,0.00,CLR,SCT,0.00,WeatherDisplay:10.37,2013-07-07 17:19:00,
2013-07-07 10:24:00,86.7,58.8,29.79,WSW,244,0.0,0.0,39,0.00,CLR,SCT,0.00,WeatherDisplay:10.37,2013-07-07 17:24:00,
2013-07-07 10:29:00,86.8,58.9,29.79,WSW,244,0.0,0.0,39,0.00,CLR,SCT,0.00,WeatherDisplay:10.37,2013-07-07 17:29:00,
2013-07-07 10:34:00,87.2,61.3,29.79,WSW,244,0.1,1.2,42,0.00,CLR,SCT,0.00,WeatherDisplay:10.37,2013-07-07 17:34:00,
2013-07-07 10:39:00,87.8,59.0,29.79,WSW,244,0.1,0.0,38,0.00,CLR,SCT,0.00,WeatherDisplay:10.37,2013-07-07 17:39:00,
2013-07-07 10:44:00,88.1,58.6,29.79,WSW,244,0.0,0.0,37,0.00,CLR,SCT,0.00,WeatherDisplay:10.37,2013-07-07 17:44:00,
2013-07-07 10:49:00,88.3,58.7,29.78,WSW,244,0.2,0.0,37,0.00,CLR,SCT,0.00,WeatherDisplay:10.37,2013-07-07 17:49:00,
2013-07-07 10:54:00,88.7,59.8,29.79,WSW,244,0.0,1.2,38,0.00,CLR,SCT,0.00,WeatherDisplay:10.37,2013-07-07 17:54:00,
2013-07-07 10:59:00,89.3,59.6,29.78,WSW,244,0.1,1.2,37,0.00,CLR,SCT,0.00,WeatherDisplay:10.37,2013-07-07 17:59:00,
2013-07-07 11:04:00,89.6,59.9,29.78,WSW,243,0.1,0.0,37,0.00,CLR,SCT,0.00,WeatherDisplay:10.37,2013-07-07 18:04:00,
2013-07-07 11:09:00,90.4,57.4,29.78,East,96,0.3,1.2,33,0.00,CLR,SCT,0.00,WeatherDisplay:10.37,2013-07-07 18:09:00,
2013-07-07 11:14:00,90.8,56.9,29.78,East,96,0.0,0.0,32,0.00,CLR,SCT,0.00,WeatherDisplay:10.37,2013-07-07 18:14:00,
2013-07-07 11:19:00,91.3,59.0,29.78,ENE,65,0.0,1.2,34,0.00,CLR,SCT,0.00,WeatherDisplay:10.37,2013-07-07 18:19:00,
2013-07-07 11:24:00,91.7,55.9,29.77,SE,143,0.9,1.2,30,0.00,CLR,SCT,0.00,WeatherDisplay:10.37,2013-07-07 18:24:00,
2013-07-07 11:29:00,91.5,56.6,29.77,SE,143,0.0,0.0,31,0.00,CLR,SCT,0.00,WeatherDisplay:10.37,2013-07-07 18:29:00,
2013-07-07 11:34:00,91.7,56.8,29.77,SE,143,0.2,1.2,31,0.00,CLR,SCT,0.00,WeatherDisplay:10.37,2013-07-07 18:34:00,
2013-07-07 11:39:00,91.9,57.8,29.77,ENE,67,0.0,3.5,32,0.00,CLR,SCT,0.00,WeatherDisplay:10.37,2013-07-07 18:39:00,
2013-07-07 11:44:00,92.1,56.2,29.76,South,182,0.0,1.2,30,0.00,CLR,SCT,0.00,WeatherDisplay:10.37,2013-07-07 18:44:00,
2013-07-07 11:49:00,92.5,56.6,29.76,ENE,68,2.2,4.6,30,0.00,CLR,SCT,0.00,WeatherDisplay:10.37,2013-07-07 18:49:00,
2013-07-07 11:54:00,92.3,55.4,29.76,ENE,75,2.6,3.5,29,0.00,CLR,SCT,0.00,WeatherDisplay:10.37,2013-07-07 18:54:00,
2013-07-07 11:59:00,92.4,58.3,29.76,ENE,75,0.9,1.2,32,0.00,CLR,SCT,0.00,WeatherDisplay:10.37,2013-07-07 18:59:00,
2013-07-07 12:04:00,92.8,57.7,29.75,ENE,75,0.2,3.5,31,0.00,CLR,SCT,0.00,WeatherDisplay:10.37,2013-07-07 19:04:00,
2013-07-07 12:09:00,93.4,57.3,29.75,East,81,2.3,4.6,30,0.00,CLR,SCT,0.00,WeatherDisplay:10.37,2013-07-07 19:09:00,
2013-07-07 12:14:00,93.6,59.3,29.75,ENE,65,0.0,1.2,32,0.00,CLR,SCT,0.00,WeatherDisplay:10.37,2013-07-07 19:14:00,
2013-07-07 12:19:00,94.2,58.9,29.75,ENE,67,1.0,3.5,31,0.00,CLR,SCT,0.00,WeatherDisplay:10.37,2013-07-07 19:19:00,
2013-07-07 12:24:00,94.4,57.2,29.75,ESE,110,0.0,0.0,29,0.00,CLR,SCT,0.00,WeatherDisplay:10.37,2013-07-07 19:24:00,
2013-07-07 12:29:00,94.7,56.5,29.74,South,173,0.7,3.5,28,0.00,CLR,SCT,0.00,WeatherDisplay:10.37,2013-07-07 19:29:00,
2013-07-07 12:34:00,95.0,54.7,29.74,South,176,0.1,1.2,26,0.00,CLR,SCT,0.00,WeatherDisplay:10.37,2013-07-07 19:34:00,
2013-07-07 12:39:00,95.2,57.9,29.74,South,173,0.1,1.2,29,0.00,CLR,SCT,0.00,WeatherDisplay:10.37,2013-07-07 19:39:00,
2013-07-07 12:44:00,95.7,55.3,29.74,ENE,69,0.8,5.8,26,0.00,CLR,SCT,0.00,WeatherDisplay:10.37,2013-07-07 19:44:00,
2013-07-07 12:49:00,95.8,56.5,29.74,ENE,76,0.3,3.5,27,0.00,CLR,SCT,0.00,WeatherDisplay:10.37,2013-07-07 19:49:00,
2013-07-07 12:54:00,95.0,55.8,29.73,ENE,69,0.0,1.2,27,0.00,CLR,SCT,0.00,WeatherDisplay:10.37,2013-07-07 19:54:00,
2013-07-07 12:59:00,95.2,55.9,29.73,NE,42,0.4,2.3,27,0.00,CLR,SCT,0.00,WeatherDisplay:10.37,2013-07-07 19:59:00,
2013-07-07 13:04:00,95.5,55.2,29.73,SW,234,0.0,6.9,26,0.00,CLR,SCT,0.00,WeatherDisplay:10.37,2013-07-07 20:04:00,
2013-07-07 13:09:00,95.3,53.9,29.73,SW,219,0.2,1.2,25,0.00,CLR,SCT,0.00,WeatherDisplay:10.37,2013-07-07 20:09:00,
2013-07-07 13:14:00,95.5,56.2,29.73,WSW,245,0.0,1.2,27,0.00,CLR,SCT,0.00,WeatherDisplay:10.37,2013-07-07 20:14:00,
2013-07-07 13:19:00,95.7,54.3,29.73,SW,218,0.7,4.6,25,0.00,CLR,SCT,0.00,WeatherDisplay:10.37,2013-07-07 20:19:00,
2013-07-07 13:24:00,95.4,54.0,29.73,SW,217,0.1,1.2,25,0.00,CLR,SCT,0.00,WeatherDisplay:10.37,2013-07-07 20:24:00,
2013-07-07 13:29:00,95.1,55.9,29.72,WSW,249,2.6,5.8,27,0.00,CLR,SCT,0.00,WeatherDisplay:10.37,2013-07-07 20:29:00,
2013-07-07 13:34:00,94.5,54.3,29.72,SW,214,0.0,3.5,26,0.00,CLR,SCT,0.00,WeatherDisplay:10.37,2013-07-07 20:34:00,
2013-07-07 13:39:00,94.2,53.0,29.72,SW,214,0.0,0.0,25,0.00,CLR,SCT,0.00,WeatherDisplay:10.37,2013-07-07 20:39:00,
2013-07-07 13:44:00,94.0,53.9,29.72,SW,215,2.1,4.6,26,0.00,CLR,SCT,0.00,WeatherDisplay:10.37,2013-07-07 20:44:00,
2013-07-07 13:49:00,93.8,54.8,29.71,SW,215,0.2,3.5,27,0.00,CLR,SCT,0.00,WeatherDisplay:10.37,2013-07-07 20:49:00,
2013-07-07 13:54:00,93.4,54.4,29.71,SW,215,0.9,1.2,27,0.00,CLR,SCT,0.00,WeatherDisplay:10.37,2013-07-07 20:54:00,
2013-07-07 13:59:00,93.1,55.2,29.71,SW,215,1.3,2.3,28,0.00,CLR,SCT,0.00,WeatherDisplay:10.37,2013-07-07 20:59:00,
2013-07-07 14:04:00,92.9,56.9,29.71,NW,320,4.1,6.0,30,0.00,CLR,SCT,0.00,WeatherDisplay:10.37,2013-07-07 21:04:00,
2013-07-07 14:09:00,92.6,57.6,29.70,WNW,300,5.1,7.0,31,0.00,CLR,SCT,0.00,WeatherDisplay:10.37,2013-07-07 21:09:00,
2013-07-07 14:14:00,92.4,56.5,29.71,WNW,292,2.5,6.9,30,0.00,CLR,SCT,0.00,WeatherDisplay:10.37,2013-07-07 21:14:00,
2013-07-07 14:19:00,92.4,56.5,29.71,West,275,3.5,3.5,30,0.00,CLR,SCT,0.00,WeatherDisplay:10.37,2013-07-07 21:19:00,
2013-07-07 14:24:00,92.5,56.6,29.71,WNW,302,2.2,4.0,30,0.00,CLR,SCT,0.00,WeatherDisplay:10.37,2013-07-07 21:24:00,
2013-07-07 14:29:00,92.9,56.9,29.71,WNW,287,5.2,9.2,30,0.00,CLR,SCT,0.00,WeatherDisplay:10.37,2013-07-07 21:29:00,
2013-07-07 14:34:00,93.0,56.0,29.71,NNW,335,4.1,5.8,29,0.00,CLR,SCT,0.00,WeatherDisplay:10.37,2013-07-07 21:34:00,
2013-07-07 14:39:00,93.4,55.4,29.70,West,271,2.7,9.2,28,0.00,CLR,SCT,0.00,WeatherDisplay:10.37,2013-07-07 21:39:00,
2013-07-07 14:44:00,93.7,55.7,29.70,NNW,332,6.2,9.2,28,0.00,CLR,SCT,0.00,WeatherDisplay:10.37,2013-07-07 21:44:00,
2013-07-07 14:49:00,93.8,55.8,29.70,WNW,290,4.2,5.8,28,0.00,CLR,SCT,0.00,WeatherDisplay:10.37,2013-07-07 21:49:00,
2013-07-07 14:54:00,94.2,55.1,29.70,NW,313,3.4,6.9,27,0.00,CLR,SCT,0.00,WeatherDisplay:10.37,2013-07-07 21:54:00,
2013-07-07 14:59:00,94.1,57.0,29.69,West,275,1.9,5.8,29,0.00,CLR,SCT,0.00,WeatherDisplay:10.37,2013-07-07 21:59:00,
2013-07-07 15:04:00,94.0,55.9,29.69,WSW,240,1.2,4.6,28,0.00,CLR,SCT,0.00,WeatherDisplay:10.37,2013-07-07 22:04:00,
2013-07-07 15:09:00,93.8,57.7,29.69,WNW,303,3.1,9.2,30,0.00,CLR,SCT,0.00,WeatherDisplay:10.37,2013-07-07 22:09:00,
2013-07-07 15:14:00,93.6,56.6,29.69,WNW,294,3.1,6.0,29,0.00,CLR,SCT,0.00,WeatherDisplay:10.37,2013-07-07 22:14:00,
2013-07-07 15:20:00,93.6,57.5,29.69,NW,311,1.5,5.8,30,0.00,CLR,SCT,0.00,WeatherDisplay:10.37,2013-07-07 22:20:00,
2013-07-07 15:25:00,93.7,55.7,29.69,West,265,1.8,5.0,28,0.00,CLR,SCT,0.00,WeatherDisplay:10.37,2013-07-07 22:25:00,
2013-07-07 15:30:00,93.6,55.6,29.69,NW,315,3.2,4.6,28,0.00,CLR,SCT,0.00,WeatherDisplay:10.37,2013-07-07 22:30:00,
2013-07-07 15:35:00,93.5,55.5,29.69,West,266,0.9,4.6,28,0.00,CLR,SCT,0.00,WeatherDisplay:10.37,2013-07-07 22:35:00,
2013-07-07 15:40:00,93.3,56.3,29.69,WNW,295,2.5,3.5,29,0.00,CLR,SCT,0.00,WeatherDisplay:10.37,2013-07-07 22:40:00,
2013-07-07 15:45:00,92.8,55.9,29.69,West,269,2.2,4.6,29,0.00,CLR,SCT,0.00,WeatherDisplay:10.37,2013-07-07 22:45:00,
2013-07-07 15:50:00,92.6,54.7,29.68,West,273,0.1,1.2,28,0.00,CLR,SCT,0.00,WeatherDisplay:10.37,2013-07-07 22:50:00,
2013-07-07 15:55:00,92.5,56.6,29.68,NW,311,1.0,4.6,30,0.00,CLR,SCT,0.00,WeatherDisplay:10.37,2013-07-07 22:55:00,
2013-07-07 16:00:00,92.3,55.4,29.69,WNW,282,2.4,5.8,29,0.00,CLR,SCT,0.00,WeatherDisplay:10.37,2013-07-07 23:00:00,
2013-07-07 16:05:00,91.8,58.6,29.69,WSW,256,0.2,3.5,33,0.00,CLR,SCT,0.00,WeatherDisplay:10.37,2013-07-07 23:05:00,
2013-07-07 16:10:00,90.9,66.6,29.70,WSW,256,0.0,0.0,45,0.01,RA,SCT,0.01,WeatherDisplay:10.37,2013-07-07 23:10:00,
2013-07-07 16:15:00,87.2,58.5,29.72,SE,141,6.9,15.0,38,0.01,RA,SCT,0.01,WeatherDisplay:10.37,2013-07-07 23:15:00,
2013-07-07 16:20:00,83.9,63.3,29.76,SE,133,0.6,4.6,50,0.01,,SCT,0.03,WeatherDisplay:10.37,2013-07-07 23:20:00,
2013-07-07 16:28:00,69.0,59.6,29.79,East,80,4.1,11.5,72,0.51,RA,SCT,0.51,WeatherDisplay:10.37,2013-07-07 23:28:00,
2013-07-07 16:37:00,66.4,62.1,29.80,SE,135,0.3,3.5,86,0.65,RA,SCT,0.66,WeatherDisplay:10.37,2013-07-07 23:37:00,
2013-07-07 16:42:00,66.1,62.4,29.81,SSE,163,0.0,0.0,88,0.73,RA,SCT,0.74,WeatherDisplay:10.37,2013-07-07 23:42:00,
2013-07-07 16:48:00,66.3,62.6,29.80,SSW,207,0.3,2.3,88,0.83,RA,SCT,0.83,WeatherDisplay:10.37,2013-07-07 23:48:00,
2013-07-07 16:53:00,66.2,62.9,29.80,WSW,246,0.0,0.0,89,0.87,RA,SCT,0.87,WeatherDisplay:10.37,2013-07-07 23:53:00,
2013-07-07 16:58:00,66.2,63.5,29.80,WSW,246,0.0,0.0,91,0.89,RA,SCT,0.89,WeatherDisplay:10.37,2013-07-07 23:58:00,
2013-07-07 17:06:00,66.3,63.9,29.81,WSW,246,0.0,0.0,92,0.89,RA,SCT,0.89,WeatherDisplay:10.37,2013-07-08 00:06:00,
2013-07-07 17:11:00,66.6,61.9,29.81,WSW,248,0.0,0.0,85,0.88,CLR,SCT,0.89,WeatherDisplay:10.37,2013-07-08 00:11:00,
2013-07-07 17:16:00,67.4,63.7,29.81,WSW,255,0.3,1.0,88,0.88,CLR,SCT,0.89,WeatherDisplay:10.37,2013-07-08 00:16:00,
2013-07-07 17:17:00,67.4,63.7,29.81,WSW,255,0.3,2.3,88,0.88,CLR,SCT,0.89,WeatherDisplay:10.37,2013-07-08 00:17:00,
2013-07-07 17:24:00,67.7,64.0,29.81,West,261,0.6,3.5,88,0.75,CLR,SCT,0.89,WeatherDisplay:10.37,2013-07-08 00:24:00,
2013-07-07 17:29:00,68.1,63.4,29.80,West,279,6.4,9.2,85,0.38,CLR,SCT,0.89,WeatherDisplay:10.37,2013-07-08 00:29:00,
2013-07-07 17:34:00,68.5,63.5,29.78,West,265,6.3,13.0,84,0.30,RA,SCT,0.91,WeatherDisplay:10.37,2013-07-08 00:34:00,
2013-07-07 17:39:00,68.8,63.8,29.77,WSW,245,5.8,9.2,84,0.25,RA,SCT,0.91,WeatherDisplay:10.37,2013-07-08 00:39:00,
2013-07-07 17:44:00,68.8,63.1,29.76,West,260,10.0,16.1,82,0.16,RA,SCT,0.91,WeatherDisplay:10.37,2013-07-08 00:44:00,
2013-07-07 17:49:00,70.4,61.3,29.75,WNW,297,5.8,10.4,73,0.08,CLR,SCT,0.91,WeatherDisplay:10.37,2013-07-08 00:49:00,
2013-07-07 17:54:00,72.0,62.1,29.76,WSW,249,7.3,11.5,71,0.04,CLR,SCT,0.91,WeatherDisplay:10.37,2013-07-08 00:54:00,
2013-07-07 17:59:00,71.9,62.8,29.77,West,263,3.9,6.9,73,0.02,CLR,SCT,0.91,WeatherDisplay:10.37,2013-07-08 00:59:00,
2013-07-07 18:04:00,72.1,61.4,29.78,West,260,5.7,11.5,69,0.02,CLR,SCT,0.91,WeatherDisplay:10.37,2013-07-08 01:04:00,
2013-07-07 18:09:00,72.8,61.2,29.78,West,267,1.6,4.6,67,0.03,RA,SCT,0.92,WeatherDisplay:10.37,2013-07-08 01:09:00,
2013-07-07 18:14:00,72.6,61.0,29.77,WNW,299,7.2,15.0,67,0.03,RA,SCT,0.92,WeatherDisplay:10.37,2013-07-08 01:14:00,
2013-07-07 18:19:00,74.7,54.3,29.77,NE,36,0.6,3.5,49,0.03,CLR,SCT,0.92,WeatherDisplay:10.37,2013-07-08 01:19:00,
2013-07-07 18:24:00,76.0,61.1,29.77,NE,36,0.0,0.0,60,0.04,RA,SCT,0.93,WeatherDisplay:10.37,2013-07-08 01:24:00,
2013-07-07 18:29:00,75.0,60.6,29.77,NW,313,1.3,3.5,61,0.04,RA,SCT,0.93,WeatherDisplay:10.37,2013-07-08 01:29:00,
2013-07-07 18:34:00,74.1,60.7,29.78,NW,312,0.9,3.5,63,0.03,CLR,SCT,0.93,WeatherDisplay:10.37,2013-07-08 01:34:00,
2013-07-07 18:39:00,73.0,62.2,29.77,SW,224,0.3,2.3,69,0.02,CLR,SCT,0.93,WeatherDisplay:10.37,2013-07-08 01:39:00,
2013-07-07 18:44:00,72.7,61.1,29.77,West,263,0.9,3.5,67,0.02,CLR,SCT,0.93,WeatherDisplay:10.37,2013-07-08 01:44:00,
2013-07-07 18:49:00,73.1,61.5,29.77,West,264,2.0,4.6,67,0.02,CLR,SCT,0.93,WeatherDisplay:10.37,2013-07-08 01:49:00,
2013-07-07 18:54:00,73.3,61.7,29.76,West,267,1.0,4.0,67,0.02,CLR,SCT,0.93,WeatherDisplay:10.37,2013-07-08 01:54:00,
2013-07-07 18:59:00,73.6,60.7,29.75,West,266,0.6,2.3,64,0.02,CLR,SCT,0.93,WeatherDisplay:10.37,2013-07-08 01:59:00,
2013-07-07 19:04:00,73.6,61.5,29.76,West,261,0.1,1.2,66,0.02,CLR,SCT,0.93,WeatherDisplay:10.37,2013-07-08 02:04:00,
2013-07-07 19:09:00,73.5,61.0,29.75,West,267,0.8,5.0,65,0.01,CLR,SCT,0.93,WeatherDisplay:10.37,2013-07-08 02:09:00,
2013-07-07 19:14:00,73.5,61.4,29.75,West,265,0.8,6.0,66,0.01,CLR,SCT,0.93,WeatherDisplay:10.37,2013-07-08 02:14:00,
2013-07-07 19:19:00,73.3,62.1,29.75,West,265,0.1,1.2,68,0.01,CLR,SCT,0.93,WeatherDisplay:10.37,2013-07-08 02:19:00,
2013-07-07 19:24:00,73.8,60.9,29.74,West,265,0.1,1.2,64,0.00,CLR,SCT,0.93,WeatherDisplay:10.37,2013-07-08 02:24:00,
2013-07-07 19:29:00,74.0,61.5,29.74,West,265,0.0,1.2,65,0.00,CLR,SCT,0.93,WeatherDisplay:10.37,2013-07-08 02:29:00,
2013-07-07 19:34:00,74.1,60.2,29.74,West,265,0.0,0.0,62,0.00,CLR,SCT,0.93,WeatherDisplay:10.37,2013-07-08 02:34:00,
2013-07-07 19:39:00,74.1,60.2,29.75,West,265,0.0,0.0,62,0.00,CLR,SCT,0.93,WeatherDisplay:10.37,2013-07-08 02:39:00,
2013-07-07 19:44:00,74.0,62.3,29.75,West,265,0.0,0.0,67,0.00,CLR,SCT,0.93,WeatherDisplay:10.37,2013-07-08 02:44:00,
2013-07-07 19:49:00,73.6,62.0,29.75,West,265,0.0,0.0,67,0.00,CLR,SCT,0.93,WeatherDisplay:10.37,2013-07-08 02:49:00,
2013-07-07 19:54:00,73.3,62.1,29.76,West,265,0.0,0.0,68,0.00,CLR,SCT,0.93,WeatherDisplay:10.37,2013-07-08 02:54:00,
2013-07-07 19:59:00,73.0,63.0,29.76,West,265,0.0,0.0,71,0.00,CLR,SCT,0.93,WeatherDisplay:10.37,2013-07-08 02:59:00,
2013-07-07 20:04:00,72.8,62.8,29.77,West,264,0.2,1.2,71,0.00,CLR,SCT,0.93,WeatherDisplay:10.37,2013-07-08 03:04:00,
2013-07-07 20:09:00,72.9,62.5,29.78,SSW,206,0.0,0.0,70,0.00,CLR,SCT,0.93,WeatherDisplay:10.37,2013-07-08 03:09:00,
2013-07-07 20:14:00,73.1,61.9,29.78,SSW,192,0.1,1.2,68,0.00,CLR,SCT,0.93,WeatherDisplay:10.37,2013-07-08 03:14:00,
2013-07-07 20:19:00,73.1,61.9,29.78,South,173,0.1,1.2,68,0.00,CLR,SCT,0.93,WeatherDisplay:10.37,2013-07-08 03:19:00,
2013-07-07 20:24:00,73.1,62.3,29.79,South,173,0.0,0.0,69,0.00,CLR,SCT,0.93,WeatherDisplay:10.37,2013-07-08 03:24:00,
2013-07-07 20:29:00,73.0,62.6,29.79,South,173,0.0,0.0,70,0.00,CLR,SCT,0.93,WeatherDisplay:10.37,2013-07-08 03:29:00,
2013-07-07 20:34:00,72.8,62.8,29.79,South,173,0.0,0.0,71,0.00,CLR,SCT,0.93,WeatherDisplay:10.37,2013-07-08 03:34:00,
2013-07-07 20:39:00,72.4,63.3,29.80,South,173,0.0,0.0,73,0.00,CLR,SCT,0.93,WeatherDisplay:10.37,2013-07-08 03:39:00,
2013-07-07 20:44:00,72.2,64.2,29.80,South,173,0.0,0.0,76,0.00,CLR,SCT,0.93,WeatherDisplay:10.37,2013-07-08 03:44:00,
2013-07-07 20:49:00,72.0,64.4,29.81,South,173,0.0,0.0,77,0.00,CLR,SCT,0.93,WeatherDisplay:10.37,2013-07-08 03:49:00,
2013-07-07 20:54:00,71.9,64.3,29.81,South,173,0.0,0.0,77,0.00,CLR,SCT,0.93,WeatherDisplay:10.37,2013-07-08 03:54:00,
2013-07-07 20:59:00,71.7,64.5,29.81,South,173,0.0,0.0,78,0.00,CLR,SCT,0.93,WeatherDisplay:10.37,2013-07-08 03:59:00,
2013-07-07 21:01:00,71.7,64.5,29.82,South,173,0.0,0.0,78,0.00,CLR,SCT,0.93,WeatherDisplay:10.37,2013-07-08 04:01:00,
2013-07-07 21:02:00,71.7,64.5,29.82,South,173,0.0,0.0,78,0.00,CLR,SCT,0.93,WeatherDisplay:10.37,2013-07-08 04:02:00,
2013-07-07 21:03:00,71.7,64.5,29.82,South,173,0.0,0.0,78,0.00,CLR,SCT,0.93,WeatherDisplay:10.37,2013-07-08 04:03:00,
2013-07-07 21:05:00,71.6,64.4,29.82,South,173,0.0,0.0,78,0.00,CLR,SCT,0.93,WeatherDisplay:10.37,2013-07-08 04:05:00,
2013-07-07 21:10:00,71.5,65.0,29.83,South,173,0.0,0.0,80,0.00,CLR,SCT,0.93,WeatherDisplay:10.37,2013-07-08 04:10:00,
2013-07-07 21:15:00,71.5,64.6,29.83,South,173,0.0,0.0,79,0.00,CLR,SCT,0.93,WeatherDisplay:10.37,2013-07-08 04:15:00,
2013-07-07 21:20:00,71.5,65.7,29.83,South,173,0.0,0.0,82,0.00,CLR,SCT,0.93,WeatherDisplay:10.37,2013-07-08 04:20:00,
2013-07-07 21:25:00,71.4,64.5,29.84,South,173,0.0,0.0,79,0.00,CLR,SCT,0.93,WeatherDisplay:10.37,2013-07-08 04:25:00,
2013-07-07 21:30:00,71.5,64.3,29.84,South,173,0.0,0.0,78,0.00,CLR,SCT,0.93,WeatherDisplay:10.37,2013-07-08 04:30:00,
2013-07-07 21:35:00,71.7,63.7,29.84,South,173,0.0,0.0,76,0.00,CLR,SCT,0.93,WeatherDisplay:10.37,2013-07-08 04:35:00,
2013-07-07 21:40:00,72.0,64.0,29.85,South,173,0.0,0.0,76,0.00,CLR,SCT,0.93,WeatherDisplay:10.37,2013-07-08 04:40:00,
2013-07-07 21:45:00,72.2,64.6,29.85,South,173,0.0,1.2,77,0.00,CLR,SCT,0.93,WeatherDisplay:10.37,2013-07-08 04:45:00,
2013-07-07 21:50:00,72.3,63.9,29.85,South,173,0.0,1.2,75,0.00,CLR,SCT,0.93,WeatherDisplay:10.37,2013-07-08 04:50:00,
2013-07-07 21:55:00,72.5,63.4,29.86,South,173,0.0,0.0,73,0.00,CLR,SCT,0.93,WeatherDisplay:10.37,2013-07-08 04:55:00,
2013-07-07 22:00:00,73.0,62.2,29.86,SSW,211,0.0,1.2,69,0.00,CLR,SCT,0.93,WeatherDisplay:10.37,2013-07-08 05:00:00,
2013-07-07 22:05:00,73.4,62.2,29.86,SW,217,0.1,1.2,68,0.00,CLR,SCT,0.93,WeatherDisplay:10.37,2013-07-08 05:05:00,
2013-07-07 22:10:00,73.6,62.4,29.86,SW,217,0.0,0.0,68,0.00,CLR,SCT,0.93,WeatherDisplay:10.37,2013-07-08 05:10:00,
2013-07-07 22:15:00,73.6,62.0,29.86,SW,217,0.0,0.0,67,0.00,CLR,SCT,0.93,WeatherDisplay:10.37,2013-07-08 05:15:00,
2013-07-07 22:20:00,73.8,60.0,29.86,SW,218,0.0,1.2,62,0.00,CLR,SCT,0.93,WeatherDisplay:10.37,2013-07-08 05:20:00,
2013-07-07 22:25:00,74.1,61.1,29.86,SW,218,0.0,0.0,64,0.00,CLR,SCT,0.93,WeatherDisplay:10.37,2013-07-08 05:25:00,
2013-07-07 22:30:00,74.1,61.6,29.86,SW,218,0.0,1.2,65,0.00,CLR,SCT,0.93,WeatherDisplay:10.37,2013-07-08 05:30:00,
2013-07-07 22:35:00,74.0,61.0,29.86,SW,218,0.0,0.0,64,0.00,CLR,SCT,0.93,WeatherDisplay:10.37,2013-07-08 05:35:00,
2013-07-07 22:40:00,74.0,60.6,29.86,SW,218,0.0,0.0,63,0.00,CLR,SCT,0.93,WeatherDisplay:10.37,2013-07-08 05:40:00,
2013-07-07 22:45:00,74.0,60.6,29.86,SW,218,0.0,0.0,63,0.00,CLR,SCT,0.93,WeatherDisplay:10.37,2013-07-08 05:45:00,
2013-07-07 22:50:00,74.0,61.5,29.85,SW,218,0.0,0.0,65,0.00,CLR,SCT,0.93,WeatherDisplay:10.37,2013-07-08 05:50:00,
2013-07-07 22:55:00,74.0,61.5,29.85,SW,218,0.0,0.0,65,0.00,CLR,SCT,0.93,WeatherDisplay:10.37,2013-07-08 05:55:00,
2013-07-07 23:00:00,73.9,61.4,29.85,SW,218,0.0,1.2,65,0.00,CLR,SCT,0.93,WeatherDisplay:10.37,2013-07-08 06:00:00,
2013-07-07 23:05:00,73.9,61.4,29.85,SW,218,0.0,0.0,65,0.00,CLR,SCT,0.93,WeatherDisplay:10.37,2013-07-08 06:05:00,
2013-07-07 23:10:00,73.7,61.2,29.85,SW,218,0.0,0.0,65,0.00,CLR,SCT,0.93,WeatherDisplay:10.37,2013-07-08 06:10:00,
2013-07-07 23:15:00,73.7,61.2,29.85,SW,218,0.0,0.0,65,0.00,CLR,SCT,0.93,WeatherDisplay:10.37,2013-07-08 06:15:00,
2013-07-07 23:20:00,73.7,60.8,29.85,SW,218,0.0,0.0,64,0.00,CLR,SCT,0.93,WeatherDisplay:10.37,2013-07-08 06:20:00,
2013-07-07 23:25:00,73.7,61.6,29.85,SW,218,0.0,0.0,66,0.00,CLR,SCT,0.93,WeatherDisplay:10.37,2013-07-08 06:25:00,
2013-07-07 23:30:00,73.5,61.9,29.85,SW,218,0.0,0.0,67,0.00,CLR,SCT,0.93,WeatherDisplay:10.37,2013-07-08 06:30:00,
2013-07-07 23:35:00,73.4,62.6,29.85,SW,218,0.0,1.2,69,0.00,CLR,SCT,0.93,WeatherDisplay:10.37,2013-07-08 06:35:00,
2013-07-07 23:40:00,73.4,62.6,29.86,SW,218,0.0,0.0,69,0.00,CLR,SCT,0.93,WeatherDisplay:10.37,2013-07-08 06:40:00,
2013-07-07 23:45:00,73.3,62.5,29.86,SW,218,0.0,0.0,69,0.00,CLR,SCT,0.93,WeatherDisplay:10.37,2013-07-08 06:45:00,
2013-07-07 23:50:00,73.1,63.9,29.86,SW,218,0.0,0.0,73,0.00,CLR,SCT,0.93,WeatherDisplay:10.37,2013-07-08 06:50:00,
2013-07-07 23:55:00,72.9,63.7,29.87,SW,218,0.0,0.0,73,0.00,CLR,SCT,0.93,WeatherDisplay:10.37,2013-07-08 06:55:00,